IW2LSY-3 Weather Reports


time (UTC)temp
C
wind
direction
speed
KPH
gust
KPH
rain 1hr
cm
rain 24hr
cm
rain mn
cm
humidity
%
barometer
mb
20260503071955 20 0 0.0 0.0 0.00 0.00 0.00 59
20260503070954 20 0 0.0 0.0 0.00 0.00 0.00 59
20260503054954 15 0 0.0 0.0 0.00 0.00 0.00 82
20260503053955 14 0 0.0 0.0 0.00 0.00 0.00 88
20260503052955 13 0 0.0 0.0 0.00 0.00 0.00 91
20260503051955 13 0 0.0 0.0 0.00 0.00 0.00 93
20260503050955 12 0 0.0 0.0 0.00 0.00 0.00 96
20260503045954 11 0 0.0 0.0 0.00 0.00 0.00 99
20260503044955 10 0 0.0 0.0 0.00 0.00 0.00 99
20260503043955 10 0 0.0 0.0 0.00 0.00 0.00 99
20260503042955 10 0 0.0 0.0 0.00 0.00 0.00 99
20260503041954 10 0 0.0 0.0 0.00 0.00 0.00 99
20260503040955 9 0 0.0 0.0 0.00 0.00 0.00 99
20260503035955 9 0 0.0 0.0 0.00 0.00 0.00 99
20260503034955 9 0 0.0 0.0 0.00 0.00 0.00 99
20260503033955 10 0 0.0 0.0 0.00 0.00 0.00 99
20260503032954 10 0 0.0 0.0 0.00 0.00 0.00 99
20260503031955 10 0 0.0 0.0 0.00 0.00 0.00 99
20260503030955 10 0 0.0 0.0 0.00 0.00 0.00 99
20260503025955 10 0 0.0 0.0 0.00 0.00 0.00 99
20260503024955 10 0 0.0 0.0 0.00 0.00 0.00 99
20260503023954 10 0 0.0 0.0 0.00 0.00 0.00 99
20260503022955 10 0 0.0 0.0 0.00 0.00 0.00 99
20260503021955 10 0 0.0 0.0 0.00 0.00 0.00 99
20260503020955 10 0 0.0 0.0 0.00 0.00 0.00 99
20260503015955 10 0 0.0 0.0 0.00 0.00 0.00 99
20260503014955 10 0 0.0 0.0 0.00 0.00 0.00 99
20260503013955 10 0 0.0 0.0 0.00 0.00 0.00 99
20260503012955 10 0 0.0 0.0 0.00 0.00 0.00 99
20260503011955 11 0 0.0 0.0 0.00 0.00 0.00 99
20260503010955 11 0 0.0 0.0 0.00 0.00 0.00 99
20260503005955 11 0 0.0 0.0 0.00 0.00 0.00 99
20260503004955 11 0 0.0 0.0 0.00 0.00 0.00 99
20260503003955 11 0 0.0 0.0 0.00 0.00 0.00 99
20260503002955 11 0 0.0 0.0 0.00 0.00 0.00 99
20260503001955 11 0 0.0 0.0 0.00 0.00 0.00 99
20260503000954 11 0 0.0 0.0 0.00 0.00 0.00 99
20260502235955 11 0 0.0 0.0 0.00 0.00 0.00 99
20260502234954 11 0 0.0 0.0 0.00 0.00 0.00 99
20260502233955 11 0 0.0 0.0 0.00 0.00 0.00 99
20260502232955 12 0 0.0 0.0 0.00 0.00 0.00 99
20260502231955 12 0 0.0 0.0 0.00 0.00 0.00 99
20260502230955 12 0 0.0 0.0 0.00 0.00 0.00 99
20260502225954 12 0 0.0 0.0 0.00 0.00 0.00 97
20260502224955 12 0 0.0 0.0 0.00 0.00 0.00 96
20260502223955 12 0 0.0 0.0 0.00 0.00 0.00 94
20260502222955 12 0 0.0 0.0 0.00 0.00 0.00 93
20260502221954 13 0 0.0 0.0 0.00 0.00 0.00 93
20260502220955 13 0 0.0 0.0 0.00 0.00 0.00 92
20260502215954 13 0 0.0 0.0 0.00 0.00 0.00 91
20260502102955 21 0 0.0 0.0 0.00 0.00 0.00 43
20260502101955 21 0 0.0 0.0 0.00 0.00 0.00 46
20260502100955 20 0 0.0 0.0 0.00 0.00 0.00 46
20260502090955 18 0 0.0 0.0 0.00 0.00 0.00 55